Location: Acheville
(50.3840°N, 2.8827°E)
Time: 10:33:00
(UTC+00:00)

CZ-4C R/B - Pass Details

Date: 24 October 2021
Orbit: 403 x 482 km, 97.7° (Epoch: 30 November)

Event Time Altitude Azimuth Distance (km) Brightness Sun altitude
Rises 18:30:11 0° 11° (N) 2,474 6.6 -18.4°
Reaches altitude 10° 18:32:16 10° 8° (N) 1,582 5.6 -18.7°
Maximum altitude 18:35:37 63° 287° (WNW) 496 3.3 -19.3°
Drops below altitude 10° 18:38:50 10° 206° (SSW) 1,523 5.8 -19.8°
Sets 18:40:49 0° 203° (SSW) 2,371 6.8 -20.1°
